Date,TemperatureHighF,TemperatureAvgF,TemperatureLowF,DewpointHighF,DewpointAvgF,DewpointLowF,HumidityHigh,HumidityAvg,HumidityLow,PressureMaxIn,PressureMinIn,WindSpeedMaxMPH,WindSpeedAvgMPH,GustSpeedMaxMPH,PrecipitationSumIn
2012-1-1,68,54,43,53,31,19,79,43,19,30.62,30.18,14,5,14,0.79
2012-1-2,43,42,42,23,22,22,45,45,44,30.62,30.59,6,4,6,0.00
2012-1-4,71,51,35,46,37,28,94,61,38,30.39,30.21,10,2,10,0.79
2012-1-5,58,54,47,47,42,31,73,64,54,30.36,30.15,5,3,5,6.05
2012-1-6,76,64,54,60,52,47,96,69,42,30.15,29.91,13,4,13,0.00
2012-1-7,74,60,50,59,51,38,96,73,42,30.06,29.94,8,3,8,0.79
2012-1-8,73,62,50,57,53,43,95,74,52,30.15,30.00,9,2,9,0.21
2012-1-9,56,56,56,55,55,54,95,95,95,30.09,30.06,4,2,4,0.00
2012-1-10,49,46,45,48,44,42,96,93,87,30.03,29.88,10,2,10,0.08
2012-1-11,69,53,38,46,40,37,96,67,38,29.94,29.65,20,3,20,0.00
2012-1-12,50,39,29,36,15,-9,64,41,11,30.33,29.91,20,6,20,7.05
2012-1-13,63,42,28,25,14,-11,52,36,5,30.41,30.24,8,2,8,7.05
2012-1-14,72,51,36,33,20,-14,50,34,3,30.39,30.24,11,3,11,0.00
2012-1-15,70,54,36,53,38,0,78,56,32,30.41,30.18,12,4,12,0.00
2012-1-16,60,60,59,54,54,53,82,80,79,30.21,30.21,9,6,9,0.00
2012-1-17,76,61,40,68,47,20,95,62,35,30.36,29.94,15,5,15,7.05
2012-1-18,40,39,38,20,19,19,45,44,44,30.39,30.36,6,4,6,0.00
2012-1-19,76,60,44,58,50,31,96,74,44,30.09,29.82,12,4,12,0.00
2012-1-20,80,69,59,65,61,57,96,79,48,29.94,29.71,15,5,15,7.05
2012-1-21,68,55,51,65,47,40,92,76,62,30.09,29.82,7,2,7,0.00
2012-1-22,79,66,51,66,58,0,100,79,40,29.94,29.65,15,4,15,0.00
2012-1-23,76,58,45,41,34,24,66,43,16,30.21,29.94,17,3,17,7.05
2012-1-24,49,48,48,31,30,30,51,50,49,30.09,30.09,2,1,2,0.00
2012-1-25,63,55,49,62,54,48,96,96,93,29.97,29.79,12,2,12,1.16
2012-1-26,64,51,44,49,43,34,96,76,46,30.15,29.94,16,3,16,0.00
2012-1-27,45,40,35,40,34,0,95,82,71,30.18,30.12,6,1,6,0.00
2012-1-29,73,58,40,33,19,-14,52,27,3,30.50,30.30,6,2,6,0.00
2012-1-30,72,57,43,55,43,25,88,61,39,30.39,30.12,12,4,12,0.00
2012-1-31,58,58,58,55,55,54,90,89,88,30.24,30.21,9,3,9,0.00
2012-2-1,82,68,60,67,62,58,96,82,50,30.15,30.00,10,2,10,0.00
2012-2-2,69,62,55,65,60,54,96,93,84,30.21,30.00,8,1,8,8.75
2012-2-3,76,68,64,66,64,62,96,88,69,30.09,29.94,10,3,10,0.00
2012-2-4,68,57,47,66,49,37,95,75,46,30.30,30.00,15,5,15,0.13
2012-2-5,47,46,45,37,36,35,70,69,69,30.33,30.30,9,5,9,0.46
2012-2-6,67,48,35,40,36,31,90,64,37,30.44,30.18,7,2,7,0.00
2012-2-7,60,51,43,45,42,36,85,71,50,30.41,30.21,4,1,4,0.00
2012-2-8,65,48,39,43,39,34,96,73,42,30.50,30.36,9,3,10,8.88
2012-2-9,39,39,38,35,34,34,85,84,83,30.41,30.41,4,2,4,0.00
2012-2-10,61,50,40,50,41,30,95,74,45,30.33,30.12,13,3,13,0.08
2012-2-11,54,42,32,31,6,-12,75,28,7,30.62,30.33,15,4,15,0.04
2012-2-12,57,40,27,20,9,-11,51,33,6,30.65,30.30,10,2,10,0.00
2012-2-13,43,42,42,20,20,20,41,40,40,30.30,30.24,4,2,4,0.00
2012-2-15,68,59,51,65,57,50,96,94,89,30.09,29.91,6,1,6,0.29
2012-2-16,59,53,48,58,50,46,96,88,68,30.30,30.09,8,2,8,9.54
2012-2-17,66,56,51,55,50,48,95,83,58,30.21,30.00,7,2,7,0.21
2012-2-18,55,51,46,52,49,45,96,94,88,30.06,29.79,12,6,13,1.74
2012-2-19,71,54,44,46,43,39,96,71,37,30.24,30.00,10,3,10,0.00
2012-2-20,45,44,44,42,42,41,91,90,90,30.15,30.15,2,0,2,0.00
2012-2-21,77,61,43,54,46,32,93,63,22,30.27,29.94,12,2,12,11.53
2012-2-22,86,70,58,62,54,17,95,63,13,30.00,29.62,12,4,12,11.53
2012-2-23,91,74,63,64,42,-14,93,50,2,29.74,29.41,17,5,17,0.00
2012-2-24,65,54,44,39,14,-12,41,25,4,30.41,29.74,15,6,16,0.00
2012-2-25,72,52,35,33,11,-14,49,26,3,30.50,30.24,8,2,8,0.00
2012-2-26,71,62,44,48,41,22,68,48,36,30.27,30.06,13,4,13,0.00
2012-2-27,80,65,57,55,52,48,85,64,41,30.36,30.15,122,2,122,0.00
2012-2-28,77,67,60,66,62,52,94,83,64,30.21,29.94,18,4,18,0.00
2012-2-29,75,68,62,68,59,46,93,76,44,30.06,29.94,10,2,10,0.00
2012-3-1,63,62,61,52,51,47,72,68,61,29.97,29.94,3,0,3,0.00
2012-3-2,85,70,55,70,52,35,88,58,22,29.88,29.65,11,4,11,0.00
2012-3-3,55,54,53,35,34,34,47,46,46,29.91,29.85,7,4,7,11.53
2012-3-4,80,59,40,38,12,-20,55,27,2,30.30,30.06,10,2,10,11.53
2012-3-5,56,55,55,30,29,28,38,36,36,30.27,30.24,5,2,5,0.00
2012-3-6,76,63,52,54,50,43,91,64,41,30.30,30.06,17,6,17,0.00
2012-3-9,67,54,49,48,40,35,73,59,50,30.39,30.09,6,2,6,14.27
2012-3-10,64,54,50,52,43,35,95,66,48,30.36,30.09,11,2,11,0.41
2012-3-11,63,58,53,62,56,52,96,95,92,30.15,30.00,6,2,6,1.04
2012-3-12,57,56,56,56,55,55,96,96,96,30.09,30.06,3,2,3,0.00
2012-3-13,80,71,64,67,65,63,95,82,61,30.18,30.03,58,3,58,0.00
2012-3-14,74,67,65,66,64,63,94,91,70,30.18,30.09,11,4,11,0.00
2012-8-11,114,95,78,17,7,-3,10,4,2,29.44,29.23,8,2,8,0.00
2012-8-12,109,89,75,64,32,-3,62,21,2,29.56,29.29,13,3,13,16.14
2012-8-13,86,83,81,54,49,43,40,31,22,29.47,29.44,8,3,8,16.14
2012-8-14,114,91,75,62,34,-2,60,24,2,29.56,29.23,10,2,10,16.14
2012-8-15,108,90,79,60,35,-3,51,23,2,29.47,29.26,11,3,11,16.14
2012-8-16,110,90,77,63,34,-3,61,23,2,29.59,29.35,10,3,10,0.00
2012-8-17,109,88,74,64,39,-3,65,28,2,29.65,29.32,6,6,6,0.00
2012-8-18,100,81,70,61,50,0,68,38,8,29.59,24.57,19,4,19,1.00
2012-8-19,77,76,76,41,40,39,28,27,27,29.44,29.41,0,0,0,0.00
2012-8-20,102,82,0,58,34,-3,66,29,2,29.59,29.35,18,2,19,0.00
2012-8-21,93,78,68,48,40,0,44,28,7,29.56,24.57,20,1,229,0.00
2012-8-22,76,75,74,20,17,15,13,11,10,28.79,28.61,3,1,3,0.00
2012-8-23,107,84,66,53,26,-3,51,20,2,29.09,27.20,20,2,115,0.00
2012-8-24,106,82,71,74,50,0,92,47,4,29.50,24.57,20,2,20,0.12
2012-8-25,100,82,73,76,71,65,93,72,33,29.59,29.32,12,3,12,0.12
2012-8-26,102,80,71,76,71,64,93,78,34,29.65,29.41,13,2,13,0.17
2012-8-27,92,77,72,81,73,70,92,87,64,29.62,29.50,11,0,11,0.24
2012-8-28,82,78,74,72,70,69,90,79,67,29.53,29.32,6,2,6,0.24
2012-8-29,99,85,73,69,64,57,76,52,31,29.38,29.14,16,5,18,0.00
2012-8-30,96,83,76,71,67,0,76,59,39,29.26,29.12,18,5,18,0.00
2012-8-31,79,79,78,72,71,70,80,78,76,29.32,29.26,4,2,4,0.00
2012-9-1,104,88,76,77,72,64,92,64,32,29.62,29.38,18,3,18,0.00
2012-9-2,105,87,74,76,70,64,92,63,31,29.62,29.35,11,3,11,0.00
2012-9-3,104,88,75,75,67,58,92,56,27,29.59,29.29,9,3,10,0.00
2012-9-4,106,88,75,74,68,59,90,56,27,29.56,29.23,6,4,8,0.24
2012-9-5,107,88,75,74,66,48,90,53,16,29.53,29.17,5,4,5,0.24
2012-9-6,108,89,74,75,65,55,86,50,24,29.47,29.20,9,2,9,0.24
2012-9-7,91,86,83,69,66,61,61,51,37,29.32,29.23,4,3,4,0.24
2012-9-8,83,77,71,69,66,63,80,71,61,29.59,24.57,18,5,18,0.24
2012-9-13,77,72,71,70,69,68,91,88,76,29.76,29.56,7,1,7,0.00
2012-9-14,87,75,69,72,68,66,93,82,54,29.79,29.56,7,1,7,0.00
2012-9-15,91,76,34,69,65,0,90,72,44,29.82,29.53,6,2,6,0.00
2012-9-16,71,69,66,66,65,63,91,86,82,29.74,29.62,5,1,5,0.00
2012-9-23,100,82,66,72,65,58,94,60,29,29.79,29.53,20,2,20,1.66
2012-9-24,140,81,68,100,64,57,100,61,29,32.19,24.57,21,3,516,1.66
2012-9-25,95,79,0,72,65,0,93,66,33,29.68,24.57,20,4,20,1.66
2012-9-26,95,79,68,73,67,0,93,69,35,29.47,24.57,21,2,21,1.66
2012-9-27,94,78,68,73,66,0,93,70,38,29.38,28.32,21,1,21,1.66
2012-9-28,97,79,66,73,63,58,89,62,32,28.32,26.19,20,1,20,1.66
2012-9-29,76,72,71,70,67,62,93,83,61,32.19,24.18,19,0,19,1.04
2012-9-30,62,62,62,58,58,58,89,89,89,29.38,29.38,5,5,8,0.00
2012-10-5,76,74,62,67,66,58,89,77,69,29.62,29.38,7,1,7,4.02
2012-10-6,73,60,52,66,54,40,84,78,63,29.82,29.62,11,3,11,0.00
2012-10-7,59,52,48,45,40,37,76,65,50,29.88,29.74,9,3,9,0.00
2012-10-8,50,49,49,46,45,43,90,85,78,29.85,29.82,6,3,8,0.00
2012-10-12,73,72,71,66,66,66,82,81,80,29.74,29.74,2,0,2,3.69
2012-10-13,89,76,68,72,68,62,94,78,43,29.74,29.38,14,4,14,0.05
2012-10-14,93,76,66,71,64,51,93,68,36,29.62,29.44,11,3,11,0.08
2012-10-15,91,70,58,60,53,43,85,59,22,29.74,29.44,1,1,1,0.00
2012-10-16,69,62,58,61,56,52,95,82,65,29.59,29.41,8,2,8,3.69
2012-10-17,88,72,61,70,64,55,95,77,47,29.44,29.00,15,4,15,3.69
2012-10-18,86,69,60,56,33,-19,65,37,2,29.59,29.26,8,3,10,0.00
2012-10-19,86,64,49,44,25,-20,62,35,2,29.68,29.35,9,2,9,3.82
2012-10-20,88,69,52,64,50,34,78,52,33,29.56,29.32,12,3,12,0.00
2012-10-21,89,76,69,72,67,64,90,74,48,29.56,29.35,14,4,14,0.00
2012-10-22,89,75,68,70,67,64,93,77,47,29.65,29.41,12,3,12,0.00
2012-10-23,91,73,65,70,64,59,94,75,40,29.65,29.41,8,2,8,0.00
2012-10-24,89,74,66,70,66,61,94,76,43,29.62,29.38,8,3,8,0.00
2012-10-25,92,74,58,72,66,55,94,79,43,29.62,29.32,11,3,11,0.00
2012-10-26,58,53,49,55,47,36,93,82,60,29.91,29.62,14,4,15,0.00
2012-10-27,68,50,39,38,35,33,85,59,33,29.94,29.68,4,4,4,0.00
2012-10-28,73,51,38,40,32,4,77,53,10,29.91,29.68,9,2,10,0.00
2012-10-29,78,54,39,41,29,-20,72,44,5,29.97,29.65,6,1,6,0.00
2012-10-30,81,58,41,46,39,32,84,53,24,29.79,29.47,8,2,8,0.00
2012-10-31,91,68,52,61,51,42,93,59,30,29.65,29.41,6,2,8,0.00
2012-11-1,93,70,53,63,54,48,91,61,30,29.68,29.41,7,2,229,0.00
2012-11-2,90,72,60,67,60,56,94,67,37,29.71,29.41,10,3,10,3.82
2012-11-3,89,69,60,71,63,56,94,81,43,29.74,29.47,13,2,13,0.00
2012-11-4,90,68,55,61,56,53,94,72,33,29.79,29.53,6,1,6,0.00
2012-11-5,87,67,56,64,52,33,93,63,35,29.74,29.47,8,3,8,0.00
2012-11-6,79,59,47,46,38,32,76,48,23,29.82,29.56,115,2,115,0.00
2012-11-7,85,62,47,47,36,3,76,44,7,29.82,29.53,8,2,8,0.00
2012-11-8,82,63,48,56,46,35,82,57,33,29.85,29.53,11,3,11,0.00
2012-11-9,83,67,54,62,55,50,94,69,40,29.74,29.50,13,4,13,0.00
2012-11-10,73,65,59,62,58,55,94,79,54,29.65,29.47,10,3,10,0.00
2012-11-11,79,67,54,69,62,50,94,84,64,29.85,29.35,13,4,13,0.00
2012-11-12,65,50,38,52,33,24,93,58,26,30.09,29.85,5,5,5,0.00
2012-11-13,42,40,38,26,26,25,61,56,54,30.15,30.06,5,5,5,0.00
2012-11-16,68,52,44,28,24,-10,43,34,4,29.94,29.79,3,0,4,0.00
2012-11-17,60,47,38,32,27,23,61,47,35,30.00,29.85,20,0,20,3.82
2012-11-18,78,57,42,43,34,30,71,45,21,29.94,29.65,6,1,6,0.00
2012-11-19,81,61,48,46,40,33,73,48,24,29.91,29.59,8,2,8,0.00
2012-11-20,89,66,52,58,50,39,84,59,33,29.85,29.59,7,1,7,0.00
2012-11-21,90,66,51,63,49,30,94,62,19,29.91,29.59,6,1,6,0.00
2012-11-22,79,64,52,56,50,44,89,64,37,29.79,29.59,10,3,10,0.00
2012-11-23,73,59,48,58,48,24,91,69,36,29.97,29.71,13,3,13,0.00
2012-11-24,70,49,35,31,19,-12,52,36,4,30.06,29.71,10,2,10,0.00
2012-11-25,76,57,38,58,41,26,88,57,32,29.79,29.41,12,4,12,0.00
2012-11-26,86,70,53,64,58,45,93,69,40,29.74,29.35,14,4,14,0.00
2012-11-27,67,52,42,48,42,36,86,68,42,30.00,29.74,12,6,14,0.00
2012-11-28,72,50,37,43,35,30,91,61,28,30.15,29.82,7,7,7,0.00
2012-11-29,74,54,36,49,42,31,90,65,38,29.97,29.65,10,3,10,0.00
2012-11-30,72,62,53,62,57,49,95,85,69,29.82,29.56,6,2,6,0.00
2012-12-1,83,70,64,65,62,58,91,77,47,29.79,29.50,13,4,13,4.19
2012-12-2,84,72,66,66,62,55,93,73,42,29.79,29.56,11,4,11,0.00
2012-12-3,68,68,66,64,64,63,89,88,87,29.71,29.65,10,5,10,0.00
2012-12-7,65,63,62,62,61,59,93,91,89,29.50,29.41,3,0,3,0.00
2012-12-8,80,69,62,67,63,60,95,84,55,29.53,29.26,9,2,9,0.00
2012-12-9,78,67,53,66,61,44,92,82,64,29.50,29.29,12,4,14,0.13
2012-12-10,53,42,32,47,24,17,92,50,38,29.79,29.50,17,6,17,0.20
2012-12-11,61,41,28,30,15,-11,61,41,6,29.88,29.62,8,2,8,0.00
2012-12-12,65,43,30,30,12,-12,62,36,4,30.03,29.74,6,1,6,0.00
2012-12-13,71,48,33,33,17,-14,70,38,3,30.03,29.68,6,1,6,0.00
2012-12-14,62,51,41,60,39,24,95,65,45,29.85,29.47,0,0,0,0.00
2012-12-15,64,64,62,63,62,60,95,93,91,29.56,29.50,0,0,0,0.00
2012-12-16,64,60,54,63,58,53,96,91,86,29.50,29.38,5,2,6,0.08
2012-12-17,71,55,44,53,40,34,96,62,32,29.56,29.38,10,2,10,0.00
2012-12-18,79,61,45,56,40,32,83,50,25,29.59,29.29,10,3,12,0.00
2012-12-19,77,70,61,66,63,55,93,79,61,29.50,29.14,13,6,17,4.23
2012-12-20,72,68,68,58,58,56,70,70,70,29.38,29.32,18,18,19,0.00
2012-12-21,60,49,46,48,2,-10,65,16,7,29.91,29.35,5,3,12,0.00
2012-12-22,70,54,38,48,31,13,68,42,28,29.94,29.68,13,4,13,0.00
2012-12-23,72,64,58,59,54,48,86,71,48,29.71,29.38,13,4,14,0.00
2012-12-24,73,54,38,54,34,26,89,49,24,29.68,29.38,6,2,6,0.00
2012-12-25,54,53,52,41,36,34,64,53,47,29.44,29.32,6,1,6,0.00